Weather History for Salt Lake City, UT

Change the Weather History Date:

Tuesday, August 19, 2014

  Actual Average Record
Temperature  
Mean Temperature 72 °F 77 °F  
Max Temperature 80 °F 90 °F 99 °F (1961)
Min Temperature 64 °F 63 °F 47 °F (1978)
Degree Days  
Heating Degree Days 0 0  
Month to date heating degree days 0 0  
Since 1 June heating degree days 39 48  
Since 1 July heating degree days 0 2  
Cooling Degree Days 7 12  
Month to date cooling degree days 230 256  
Year to date cooling degree days 987 918  
Since 1 June cooling degree days 925 868  
Growing Degree Days 22 (Base 50)    
Moisture  
Dew Point 53 °F    
Average Humidity 59    
Maximum Humidity 87    
Minimum Humidity 30    
Precipitation  
Precipitation 0.08 in 0.02 in 1.42 in (1945)
Month to date precipitation 0.88 0.38  
Year to date precipitation 9.05 10.20  
Snow  
Snow 0.00 in 0.00 in - ()
Month to date snowfall 0.0 0.0  
Since 1 July snowfall 0.0 0.0  
Snow Depth 0.00 in    
Sea Level Pressure  
Sea Level Pressure 29.76 in    
Wind  
Wind Speed 12 mph (SSE)    
Max Wind Speed 31 mph    
Max Gust Speed 40 mph    
Visibility 10 miles    
Events Rain    
T = Trace of Precipitation, MM = Missing Value Source: NWS Daily Summary

Daily Weather History Graph

Daily Weather History Graph

Search for Another Location

Airport:

Trip Planner

Search our weather history database for the weather conditions in past years. The results will help you decide how hot, cold, wet, or windy it might be!

Date:

Astronomy

Aug. 19, 2014 Rise Set
Actual Time 6:42 AM MDT 8:20 PM MDT
Civil Twilight 6:13 AM MDT 8:49 PM MDT
Nautical Twilight 5:37 AM MDT 9:24 PM MDT
Astronomical Twilight 5:00 AM MDT 10:01 PM MDT
Moon 1:36 AM MDT (8/19) 4:20 PM MDT (8/19)
Length of Visible Light 14h 36m
Length of Day
13h 37m
Waning Crescent, 28% of the Moon is Illuminated
Aug 19
Waning Crescent
Aug 25
New
Sep 2
First Quarter
Sep 8
Full
Sep 15
Last Quarter

Hourly Weather History & Observations

Time (MDT) Temp. Dew Point Humidity Pressure Visibility Wind Dir Wind Speed Gust Speed Precip Events Conditions
12:53 AM 80.1 °F 46.0 °F 30% 29.70 in 10.0 mi SSE 16.1 mph 24.2 mph N/A   Mostly Cloudy
1:53 AM 79.0 °F 45.0 °F 30% 29.70 in 10.0 mi SSE 13.8 mph - N/A   Mostly Cloudy
2:53 AM 80.1 °F 43.0 °F 27% 29.70 in 10.0 mi South 16.1 mph - N/A   Mostly Cloudy
3:53 AM 78.1 °F 46.0 °F 32% 29.72 in 10.0 mi South 18.4 mph 26.5 mph N/A   Mostly Cloudy
4:53 AM 77.0 °F 44.1 °F 31% 29.73 in 10.0 mi South 18.4 mph 27.6 mph N/A   Mostly Cloudy
5:53 AM 73.9 °F 48.0 °F 40% 29.73 in 10.0 mi South 31.1 mph 39.1 mph N/A   Mostly Cloudy
6:53 AM 72.0 °F 48.9 °F 44% 29.75 in 10.0 mi SSE 23.0 mph 33.4 mph 0.00 in Rain Light Rain
7:53 AM 70.0 °F 52.0 °F 53% 29.79 in 10.0 mi SSE 15.0 mph - 0.00 in   Overcast
8:53 AM 68.0 °F 54.0 °F 61% 29.82 in 10.0 mi SE 12.7 mph - N/A   Mostly Cloudy
9:53 AM 64.9 °F 59.0 °F 81% 29.86 in 9.0 mi SE 12.7 mph - 0.00 in Rain Light Rain
10:53 AM 64.9 °F 60.1 °F 84% 29.85 in 10.0 mi SSE 8.1 mph - 0.05 in Rain Light Rain
11:53 AM 66.9 °F 59.0 °F 76% 29.85 in 10.0 mi SSE 6.9 mph - 0.01 in Rain Light Rain
12:53 PM 66.0 °F 59.0 °F 78% 29.86 in 8.0 mi SSE 8.1 mph - 0.00 in Rain Light Rain
1:53 PM 66.9 °F 60.1 °F 79% 29.83 in 10.0 mi NE 4.6 mph - 0.02 in   Mostly Cloudy
2:53 PM 68.0 °F 55.9 °F 65% 29.81 in 10.0 mi SE 6.9 mph - N/A   Mostly Cloudy
3:53 PM 70.0 °F 55.0 °F 59% 29.78 in 10.0 mi ESE 9.2 mph - N/A   Mostly Cloudy
4:53 PM 72.0 °F 55.0 °F 55% 29.74 in 10.0 mi SSE 10.4 mph - N/A   Mostly Cloudy
5:53 PM 73.9 °F 54.0 °F 50% 29.71 in 10.0 mi ESE 12.7 mph - N/A   Scattered Clouds
6:53 PM 72.0 °F 55.0 °F 55% 29.72 in 10.0 mi SSE 8.1 mph - N/A   Mostly Cloudy
7:53 PM 70.0 °F 55.9 °F 61% 29.73 in 10.0 mi SE 8.1 mph - N/A   Mostly Cloudy
8:53 PM 70.0 °F 55.0 °F 59% 29.73 in 10.0 mi SE 9.2 mph - N/A   Mostly Cloudy
9:53 PM 70.0 °F 55.0 °F 59% 29.75 in 10.0 mi South 8.1 mph - N/A   Mostly Cloudy
10:53 PM 69.1 °F 57.0 °F 65% 29.76 in 10.0 mi SE 6.9 mph - N/A   Mostly Cloudy
11:53 PM 69.1 °F 57.0 °F 65% 29.75 in 10.0 mi ESE 8.1 mph - 0.00 in   Overcast